Regional Weather Roundup
Issued by NWS

Home | Current Version | Previous Version | Text Only | Print | Product List | Glossary Off
Versions: 1 2 3 4 5 6 7 8 9 10 11 12 13 14 15 16 17 18 19 20 21 22 23 24 25 26 27 28 29 30 31 32 33 34 35 36 37 38 39 40 41 42 43 44 45 46 47 48 49 50

000
ASUS43 KFSD 021502
RWRSD

WEATHER ROUNDUP FOR SOUTH DAKOTA
NATIONAL WEATHER SERVICE SIOUX FALLS SD
1000 AM CDT WED SEP 02 2015

NOTE: "FAIR" INDICATES FEW OR NO CLOUDS BELOW 12,000 FEET WITH NO
SIGNIFICANT WEATHER AND/OR OBSTRUCTIONS TO VISIBILITY.


SDZ001>005-009-010-012>017-021600-
NORTHWEST AND NORTH CENTRAL SOUTH DAKOTA

CITY           SKY/WX    TMP DP  RH WIND       PRES   REMARKS
BUFFALO          N/A     71  57  61 SE6       29.78S
FAITH            N/A     69  61  75 W7        29.83R
MOBRIDGE       FOG       67  67 100 E6        29.77F VSB 1/2
$$

SDZ012>016-024>037-041>051-057-063-072>074-021600-
SOUTHWEST AND SOUTH CENTRAL SOUTH DAKOTA

CITY           SKY/WX    TMP DP  RH WIND       PRES   REMARKS
RAPID CTY ARPT PTSUNNY   77  51  40 CALM      29.85F
PIERRE         FOG       64  64 100 CALM      29.78F VSB 1/4
CUSTER         PTSUNNY   71  42  35 VRB6      30.04F
ELLSWORTH AFB  PTSUNNY   78  53  41 SW1       29.85S
PHILIP         MOSUNNY   72  57  59 SW7       29.82S
PINE RIDGE     SUNNY     77  48  35 SW6       29.91F
WINNER         FAIR      79  61  53 SW8       29.81F
$$

SDZ004>011-016>023-039-040-021600-
NORTHEAST SOUTH DAKOTA

CITY           SKY/WX    TMP DP  RH WIND       PRES   REMARKS
ABERDEEN       SUNNY     75  68  78 S6        29.80F
WATERTOWN      SUNNY     75  68  78 S13       29.84F
BROOKINGS      SUNNY     72  66  83 SE10      29.87F
$$

SDZ017-020-022-023-036>040-048>070-021600-
SOUTHEAST SOUTH DAKOTA

CITY           SKY/WX    TMP DP  RH WIND       PRES   REMARKS
SIOUX FALLS    MOSUNNY   75  69  81 S10       29.86S
HURON          SUNNY     74  68  81 SE9       29.80S
CHAMBERLAIN    SUNNY     74  67  78 CALM      29.80F
MITCHELL       SUNNY     76  69  79 SE9       29.81S
YANKTON        SUNNY     73  68  83 SE9       29.83S
$$

ABBREVIATIONS USED IN REMARKS
   TC - TEMPERATURE IN CELSIUS
  WCI - WIND CHILL INDEX
   HX - HEAT INDEX
  VSB - VISIBILITY



USA.gov is the U.S. government's official web portal to all federal, state and local government web resources and services.